Tracking 19817 objects as of 19-Aug-2019
HD Live streaming from Space Station
objects crossing your sky now

DELTA 1 DEB

Track DELTA 1 DEB now!
10-day predictions


NORAD ID: 12266
Int'l Code: 1978-026DK
Perigee: 818.8 km
Apogee: 1,049.9 km
Inclination: 98.8 °
Period: 103.6 minutes
Semi major axis: 7305 km
RCS: 0.0032 m2 (small)
Launch date: March 5, 1978
Source: United States (US)
Launch site: AIR FORCE WESTERN TEST RANGE (AFWTR)

Note: This is SATELLITE DEBRIS
aabbcc
Your satellite tracking list
Your tracking list is empty




NASA's NSSDC Master Catalog

Two Line Element Set (TLE):
1 12266U 78026DK  19230.67621627 +.00000257 +00000-0 +21629-3 0  9999
2 12266 098.8078 120.0880 0158187 073.0620 288.7812 13.90412462936631
Source of the keplerian elements: AFSPC